DW8214 Weather Reports


time (UTC)temp
C
wind
direction
speed
KPH
gust
KPH
rain 1hr
cm
rain 24hr
cm
rain mn
cm
humidity
%
barometer
mb
20180419170334 22 109 9.7 37.0 0.00 0.00 0.00 45 1009.1
20180419164832 22 140 9.7 37.0 0.00 0.00 0.00 45 1009.1
20180419163331 22 123 12.9 37.0 0.00 0.00 0.00 44 1009.1
20180419161830 23 114 11.3 37.0 0.00 0.00 0.00 43 1009.2
20180419160327 23 126 6.4 37.0 0.00 0.00 0.00 44 1009.3
20180419154828 23 121 12.9 37.0 0.00 0.00 0.00 43 1009.6
20180419153331 23 130 14.5 37.0 0.00 0.00 0.00 43 1009.3
20180419151826 23 103 11.3 37.0 0.00 0.00 0.00 44 1009.6
20180419150326 23 128 6.4 37.0 0.00 0.00 0.00 45 1009.5
20180419144825 23 124 9.7 37.0 0.00 0.00 0.00 42 1009.4
20180419143326 23 90 14.5 37.0 0.00 0.00 0.00 42 1009.5
20180419141822 23 153 11.3 37.0 0.00 0.00 0.00 43 1009.7
20180419140321 23 113 9.7 37.0 0.00 0.00 0.00 42 1009.8
20180419134822 23 145 11.3 37.0 0.00 0.00 0.00 42 1009.8
20180419133319 23 130 9.7 37.0 0.00 0.00 0.00 41 1010.1
20180419131818 23 136 12.9 37.0 0.00 0.00 0.00 42 1010.1
20180419130317 23 107 12.9 37.0 0.00 0.00 0.00 41 1010.2
20180419124813 23 155 11.3 37.0 0.00 0.00 0.00 41 1010.2
20180419123311 23 127 12.9 37.0 0.00 0.00 0.00 41 1010.3
20180419121808 22 107 14.5 37.0 0.00 0.00 0.00 42 1010.6
20180419120308 22 160 14.5 37.0 0.00 0.00 0.00 42 1010.8
20180419114805 22 126 16.1 32.2 0.00 0.00 0.00 40 1011.0
20180419113303 22 119 19.3 45.1 0.00 0.00 0.00 40 1011.2
20180419111803 22 160 17.7 45.1 0.00 0.00 0.00 41 1011.3
20180419110301 22 126 11.3 45.1 0.00 0.00 0.00 40 1011.2
20180419104759 22 132 8.0 45.1 0.00 0.00 0.00 40 1011.3
20180419103257 22 67 9.7 45.1 0.00 0.00 0.00 42 1011.3
20180419101755 21 136 25.7 45.1 0.00 0.00 0.00 42 1011.4
20180419100254 21 97 16.1 45.1 0.00 0.00 0.00 43 1011.6
20180419094755 21 101 16.1 45.1 0.00 0.00 0.00 43 1011.6
20180419093255 21 187 14.5 45.1 0.00 0.00 0.00 43 1011.5
20180419091758 21 27 12.9 37.0 0.00 0.00 0.00 43 1011.6
20180419090248 21 86 11.3 37.0 0.00 0.00 0.00 43 1011.6
20180419084747 20 60 11.3 33.8 0.00 0.00 0.00 46 1011.8
20180419083247 20 118 6.4 33.8 0.00 0.00 0.00 49 1011.8
20180419081742 20 81 4.8 33.8 0.00 0.00 0.00 50 1011.6
20180419080241 19 79 1.6 33.8 0.00 0.00 0.00 51 1011.8
20180419074735 18 128 4.8 33.8 0.00 0.00 0.00 53 1011.8
20180419073231 18 113 3.2 33.8 0.00 0.00 0.00 55 1011.8
20180419071727 17 75 3.2 33.8 0.00 0.00 0.00 56 1011.7
20180419070226 16 344 0.0 33.8 0.00 0.00 0.00 59 1011.7
20180419064726 16 82 1.6 33.8 0.00 0.00 0.00 60 1011.5
20180419063226 15 71 3.2 33.8 0.00 0.00 0.00 59 1011.4
20180419061724 15 92 4.8 33.8 0.00 0.00 0.00 60 1011.4
20180419060223 15 49 1.6 33.8 0.00 0.00 0.00 60 1011.4
20180419054723 15 48 3.2 33.8 0.00 0.00 0.00 59 1011.3
20180419053222 15 66 6.4 33.8 0.00 0.00 0.00 61 1011.5
20180419051724 13 69 3.2 33.8 0.00 0.00 0.00 65 1011.4
20180419050221 13 44 3.2 33.8 0.00 0.00 0.00 64 1011.7
20180419044715 14 98 1.6 33.8 0.00 0.00 0.00 62 1012.0
20180419043217 15 61 1.6 33.8 0.00 0.00 0.00 61 1012.0
20180419041713 14 66 0.0 33.8 0.00 0.00 0.00 62 1012.1
20180419040211 15 60 0.0 33.8 0.00 0.00 0.00 60 1012.0
20180419033209 16 87 0.0 33.8 0.00 0.00 0.00 53 1012.1
20180419031708 16 59 4.8 33.8 0.00 0.00 0.00 53 1012.0
20180419030205 16 139 4.8 33.8 0.00 0.00 0.00 54 1012.1
20180419024706 16 76 4.8 33.8 0.00 0.00 0.00 55 1012.4
20180419023202 16 63 4.8 33.8 0.00 0.00 0.00 57 1012.8
20180419021700 16 84 4.8 33.8 0.00 0.00 0.00 57 1012.9
20180419020158 16 61 3.2 33.8 0.00 0.00 0.00 57 1013.0
20180419014658 16 70 3.2 33.8 0.00 0.00 0.00 57 1012.9
20180419013156 16 67 4.8 33.8 0.00 0.00 0.00 57 1013.0
20180419011655 16 110 4.8 33.8 0.00 0.00 0.00 60 1013.3
20180419010152 16 73 3.2 33.8 0.00 0.00 0.00 59 1013.6
20180419004652 16 130 3.2 33.8 0.00 0.00 0.00 59 1013.8
20180419003150 16 82 1.6 33.8 0.00 0.00 0.00 60 1014.0
20180419001647 16 53 1.6 33.8 0.00 0.00 0.00 60 1014.0
20180419000146 16 78 4.8 33.8 0.00 0.00 0.00 59 1014.0
20180418234644 16 82 1.6 33.8 0.00 0.00 0.00 60 1014.1
20180418233144 15 86 1.6 33.8 0.00 0.00 0.00 61 1014.3
20180418231641 16 98 0.0 33.8 0.00 0.00 0.00 57 1014.4
20180418230138 17 122 1.6 33.8 0.00 0.00 0.00 55 1014.5
20180418224639 16 78 4.8 33.8 0.00 0.00 0.00 58 1014.3
20180418223137 15 86 1.6 33.8 0.00 0.00 0.00 63 1014.5
20180418221636 15 70 1.6 33.8 0.00 0.00 0.00 65 1014.4
20180418220135 15 74 0.0 33.8 0.00 0.00 0.00 65 1014.6
20180418214635 16 72 0.0 33.8 0.00 0.00 0.00 63 1014.5
20180418213136 16 126 0.0 33.8 0.00 0.00 0.00 61 1014.5
20180418211634 16 123 0.0 33.8 0.00 0.00 0.00 61 1014.4
20180418210133 16 55 0.0 33.8 0.00 0.00 0.00 61 1014.4
20180418204637 17 76 1.6 33.8 0.00 0.00 0.00 61 1014.3
20180418203134 17 71 0.0 33.8 0.00 0.00 0.00 59 1014.3
20180418201633 17 81 0.0 33.8 0.00 0.00 0.00 59 1014.0
20180418200131 17 94 0.0 33.8 0.00 0.00 0.00 59 1013.7
20180418194631 18 120 0.0 33.8 0.00 0.00 0.00 57 1013.6
20180418193131 18 128 0.0 33.8 0.00 0.00 0.00 56 1013.5
20180418191633 19 122 0.0 33.8 0.00 0.00 0.00 55 1013.4
20180418190132 20 127 0.0 33.8 0.00 0.00 0.00 52 1013.4
20180418184631 21 142 0.0 33.8 0.00 0.00 0.00 50 1013.4
20180418183129 22 136 1.6 33.8 0.00 0.00 0.00 46 1013.4
20180418181628 23 122 0.0 33.8 0.00 0.00 0.00 44 1013.4
20180418180128 22 113 4.8 33.8 0.00 0.00 0.00 44 1013.4
20180418174628 23 111 4.8 33.8 0.00 0.00 0.00 44 1013.5
20180418173127 23 155 4.8 33.8 0.00 0.00 0.00 43 1013.5
20180418171629 23 108 3.2 33.8 0.00 0.00 0.00 43 1013.5